EW2946 Weather Reports


time (UTC)temp
C
wind
direction
speed
KPH
gust
KPH
rain 1hr
cm
rain 24hr
cm
rain mn
cm
humidity
%
barometer
mb
20260505171528 13 248 1.6 4.8 0.00 0.00 0.00 75 1015.5
20260505170028 13 327 1.6 4.8 0.00 0.00 0.00 76 1015.4
20260505164544 12 84 1.6 3.2 0.00 0.00 0.00 79 1015.3
20260505163020 12 60 1.6 4.8 0.00 0.00 0.00 81 1015.3
20260505161517 11 286 0.0 1.6 0.00 0.00 0.00 82 1015.3
20260505153010 11 289 0.0 1.6 0.00 0.00 0.00 87 1015.3
20260505151503 10 289 0.0 0.0 0.00 0.00 0.00 87 1015.2
20260505124548 10 289 0.0 1.6 0.00 0.00 0.00 89 1014.3
20260505123046 10 289 0.0 1.6 0.00 0.00 0.00 89 1014.3
20260505121545 10 289 0.0 0.0 0.00 0.00 0.00 89 1014.3
20260505120044 10 289 0.0 1.6 0.00 0.00 0.00 89 1014.5
20260505114546 10 289 0.0 1.6 0.00 0.00 0.00 89 1014.4
20260505113044 10 289 0.0 1.6 0.00 0.00 0.00 89 1014.5
20260505111551 10 289 0.0 1.6 0.00 0.00 0.00 89 1014.3
20260505101541 10 289 0.0 1.6 0.00 0.00 0.00 88 1014.3
20260505100049 10 289 0.0 0.0 0.00 0.00 0.00 88 1014.3
20260505094539 10 289 0.0 3.2 0.00 0.00 0.00 88 1014.5
20260505093039 10 289 0.0 0.0 0.00 0.00 0.00 88 1014.4
20260505091550 10 289 0.0 1.6 0.00 0.00 0.00 88 1014.8
20260505090050 10 289 0.0 0.0 0.00 0.00 0.00 88 1014.9
20260505084537 10 289 0.0 1.6 0.00 0.00 0.00 88 1014.9
20260505083041 10 289 0.0 1.6 0.00 0.00 0.00 88 1014.9
20260505081549 10 289 0.0 1.6 0.00 0.00 0.00 88 1015.0
20260505080041 10 289 0.0 1.6 0.00 0.00 0.00 88 1015.1
20260505074530 10 289 0.0 1.6 0.00 0.00 0.00 88 1015.1
20260505073029 10 289 0.0 1.6 0.00 0.00 0.00 87 1015.0
20260505071529 10 289 0.0 0.0 0.00 0.00 0.00 87 1014.8
20260505070027 10 289 0.0 1.6 0.00 0.00 0.00 87 1014.9
20260505064525 10 289 0.0 3.2 0.00 0.00 0.00 86 1014.8
20260505063033 10 289 0.0 1.6 0.00 0.00 0.00 85 1014.6
20260505061530 10 289 0.0 1.6 0.00 0.00 0.00 84 1014.7
20260505060023 11 289 0.0 1.6 0.00 0.00 0.00 82 1014.8
20260505054526 11 289 0.0 0.0 0.00 0.00 0.00 80 1014.9
20260505053022 11 289 0.0 1.6 0.00 0.00 0.00 79 1015.1
20260505051521 11 343 0.0 3.2 0.00 0.00 0.00 80 1015.1
20260505041519 11 355 0.0 1.6 0.00 0.00 0.00 81 1014.8
20260505040018 11 360 0.0 1.6 0.00 0.00 0.00 81 1014.5
20260505034519 11 360 0.0 1.6 0.00 0.00 0.00 81 1014.3
20260505033030 11 360 0.0 1.6 0.00 0.00 0.00 79 1014.0
20260505031517 12 9 0.0 0.0 0.00 0.00 0.00 77 1014.2
20260505030017 12 22 0.0 1.6 0.00 0.00 0.00 73 1014.1
20260505024538 13 57 0.0 1.6 0.00 0.00 0.00 71 1014.1
20260505023016 13 57 0.0 3.2 0.00 0.00 0.00 69 1013.9
20260505021533 14 321 0.0 4.8 0.00 0.00 0.00 68 1013.9
20260505020015 14 267 0.0 4.8 0.00 0.00 0.00 67 1013.8
20260505014518 15 300 0.0 3.2 0.00 0.00 0.00 64 1013.8
20260505013013 15 267 3.2 11.3 0.00 0.00 0.00 63 1014.0
20260505011512 15 250 3.2 8.0 0.00 0.00 0.00 60 1014.1
20260505010021 15 261 3.2 8.0 0.00 0.00 0.00 61 1014.2
20260505004521 16 276 1.6 8.0 0.00 0.00 0.00 58 1014.3
20260505003010 16 355 3.2 9.7 0.00 0.00 0.00 58 1014.2
20260505001510 16 236 3.2 14.5 0.00 0.00 0.00 56 1014.2
20260505000011 17 347 3.2 11.3 0.00 0.00 0.00 62 1014.0
20260504234509 17 192 1.6 11.3 0.00 0.00 0.00 60 1014.1
20260504233008 17 198 1.6 14.5 0.00 0.00 0.00 59 1014.1
20260504231507 17 243 3.2 9.7 0.00 0.00 0.00 59 1014.1
20260504230006 17 202 1.6 8.0 0.00 0.00 0.00 61 1014.2
20260504224508 17 238 1.6 11.3 0.00 0.00 0.00 58 1014.1
20260504223105 18 184 1.6 14.5 0.00 0.00 0.00 60 1014.3
20260504221502 18 250 4.8 9.7 0.00 0.00 0.00 58 1014.5
20260504220002 17 255 3.2 11.3 0.00 0.00 0.00 59 1014.8
20260504214503 17 355 3.2 8.0 0.00 0.00 0.00 59 1014.9
20260504213002 17 355 0.0 8.0 0.00 0.00 0.00 67 1015.0
20260504211601 16 230 0.0 6.4 0.00 0.00 0.00 67 1015.2
20260504211501 16 162 0.0 6.4 0.00 0.00 0.00 65 1015.2
20260504210104 16 292 0.0 6.4 0.00 0.00 0.00 65 1015.2
20260504204618 17 36 0.0 6.4 0.00 0.00 0.00 58 1015.0
20260504203059 16 303 0.0 12.9 0.00 0.00 0.00 63 1015.1
20260504201609 17 247 3.2 11.3 0.00 0.00 0.00 61 1015.1
20260504200109 17 145 4.8 11.3 0.00 0.00 0.00 59 1015.1
20260504194555 16 178 6.4 14.5 0.00 0.00 0.00 64 1015.1
20260504193054 16 103 1.6 11.3 0.00 0.00 0.00 70 1015.3
20260504191553 16 166 1.6 14.5 0.00 0.00 0.00 69 1015.3
20260504190052 15 209 1.6 8.0 0.00 0.00 0.00 73 1015.4
20260504184557 15 242 1.6 8.0 0.00 0.00 0.00 72 1015.5
20260504183051 15 342 1.6 6.4 0.00 0.00 0.00 70 1015.5
20260504181553 15 311 1.6 8.0 0.00 0.00 0.00 72 1015.3
20260504180049 15 260 0.0 8.0 0.00 0.00 0.00 71 1015.2
20260504174549 15 225 0.0 11.3 0.00 0.00 0.00 72 1015.1
20260504173046 16 329 3.2 9.7 0.00 0.00 0.00 69 1014.9